Volver al catálogo

ATLAS 5 CENTAUR DEB

ActivoHEO
NORAD 46846·DEBRIS·🇺🇸 United States

Lanzado Oct 17, 2018 desde Cape Canaveral Space Force Station

Loading…

Próximos Pases (próximas 24 horas)

TLE

ActualizadoSource: Space-Track

Época: Sep 13, 2026, 22:25 UTC

1 46846U 18079DB  26256.93428631 -.00000156  00000-0  00000-0 0  9993
2 46846  12.5026  55.8430 4564519 278.4773  34.0347  1.71814452 36826

Sigue ATLAS 5 CENTAUR DEB en tiempo real con AllMySat

Download on the App Store